Date String (YYYY-MM-DD hh:mm:ss) UTC,Instrument flags,absolute air pressure of the measurement (hPa),sample flow rate (lpm),inlet stack bypass flow (lpm),air temperature of the measurement (°C),ambient temperature measured by the external sensor (°C),aerosol sample conditioner tube jacket temperature (°C),OPC LED temperature (°C),internal box temperature (°C),relative humidity of the measurement (%),span deviation,mass concentration of particles derived from Lorenz-Mie calculation of OPC scattering (μg/m³),mass concentration of particles derived from Lorenz-Mie calculation of OPC scattering (μg/m³),mass concentration of particles derived from Lorenz-Mie calculation of OPC scattering (μg/m³)
DateTimeUTC,F1_M11,P_M11,Q1_M11,Q2_M11,T1_M11,T2_M11,T3_M11,T4_M11,T5_M11,U1_M11,ZSPAN_M11,X2_M11,X0_M11,X1_M11
2024-04-05 02:00:00,SystemResetWarning,0821.9,4.98,000.00,025.3,022.8,000.0,033.8,026.2,010.3,0000.0,0002.90,0012.19,0001.87
2024-04-05 02:01:00,SystemResetWarning,0822.0,5.03,000.00,024.8,021.8,000.0,033.7,025.5,010.4,0000.0,0002.91,0011.98,0001.87
2024-04-05 02:02:00,SystemResetWarning,0822.0,5.00,000.00,024.7,022.0,000.0,033.6,025.6,010.3,0000.0,0002.97,0012.25,0001.89
2024-04-05 02:03:00,SystemResetWarning,0822.0,4.99,000.00,024.6,022.4,000.0,033.5,025.9,010.4,0000.0,0003.06,0012.41,0001.90
2024-04-05 02:04:00,SystemResetWarning,0821.9,5.00,000.00,024.6,022.8,000.0,033.4,026.1,010.4,0000.0,0003.03,0011.68,0001.89
2024-04-05 02:05:00,SystemResetWarning,0821.9,5.01,000.00,024.7,023.1,000.0,033.4,026.3,010.4,0000.0,0003.00,0011.56,0001.87
2024-04-05 02:06:00,SystemResetWarning,0821.9,5.00,000.00,024.7,023.4,000.0,033.3,026.4,010.4,0000.0,0003.00,0013.24,0001.87
2024-04-05 02:07:00,SystemResetWarning,0822.0,4.99,000.00,024.7,023.7,000.0,033.3,026.5,010.5,0000.0,0003.02,0013.41,0001.86
2024-04-05 02:08:00,SystemResetWarning,0822.0,4.99,000.00,024.8,023.9,000.0,033.3,026.6,010.5,0000.0,0003.01,0013.82,0001.85
2024-04-05 02:09:00,SystemResetWarning,0822.0,5.00,000.00,024.8,024.0,000.0,033.3,026.7,010.5,0000.0,0003.03,0012.60,0001.86
2024-04-05 02:10:00,SystemResetWarning,0822.0,5.00,000.00,024.9,024.2,000.0,033.3,026.7,010.7,0000.0,0003.02,0012.08,0001.87
2024-04-05 02:11:00,SystemResetWarning,0822.0,5.01,000.00,024.9,024.3,000.0,033.3,026.8,010.7,0000.0,0002.99,0011.80,0001.87
2024-04-05 02:12:00,SystemResetWarning,0821.9,5.01,000.00,025.0,024.4,000.0,033.3,026.9,010.6,0000.0,0003.01,0012.69,0001.87
2024-04-05 02:13:00,SystemResetWarning,0821.9,5.00,000.00,025.0,024.5,000.0,033.3,026.9,010.6,0000.0,0002.93,0012.55,0001.86
2024-04-05 02:14:00,SystemResetWarning,0822.0,4.98,000.00,025.1,024.5,000.0,033.4,027.0,010.6,0000.0,0002.87,0013.49,0001.85
2024-04-05 02:15:00,SystemResetWarning,0822.0,5.01,000.00,025.1,024.6,000.0,033.4,027.0,010.6,0000.0,0002.85,0014.08,0001.85
2024-04-05 02:16:00,SystemResetWarning,0822.0,5.01,000.00,025.2,024.7,000.0,033.4,027.1,010.6,0000.0,0002.85,0014.18,0001.85
2024-04-05 02:17:00,SystemResetWarning,0822.0,4.99,000.00,025.2,024.7,000.0,033.5,027.1,010.7,0000.0,0002.82,0012.82,0001.85
2024-04-05 02:18:00,SystemResetWarning,0822.0,4.99,000.00,025.3,024.8,000.0,033.5,027.2,010.7,0000.0,0002.80,0012.29,0001.86
2024-04-05 02:19:00,SystemResetWarning,0821.9,5.00,000.00,025.3,024.8,000.0,033.5,027.2,010.8,0000.0,0002.88,0011.51,0001.86
2024-04-05 02:20:00,SystemResetWarning,0821.9,5.01,000.00,025.3,024.8,000.0,033.5,027.2,010.8,0000.0,0002.90,0011.62,0001.86
2024-04-05 02:21:00,SystemResetWarning,0821.9,5.01,000.00,025.4,024.9,000.0,033.6,027.3,010.8,0000.0,0002.89,0011.80,0001.86
2024-04-05 02:22:00,SystemResetWarning,0822.0,5.00,000.00,025.4,024.9,000.0,033.6,027.3,010.8,0000.0,0002.89,0012.28,0001.87
2024-04-05 02:23:00,SystemResetWarning,0822.0,4.99,000.00,025.4,024.9,000.0,033.6,027.3,010.8,0000.0,0002.91,0011.39,0001.87
2024-04-05 02:24:00,SystemResetWarning,0822.0,4.98,000.00,025.5,025.0,000.0,033.7,027.4,010.7,0000.0,0002.93,0011.88,0001.87
2024-04-05 02:25:00,SystemResetWarning,0822.0,5.00,000.00,025.5,025.0,000.0,033.7,027.4,010.6,0000.0,0002.90,0011.58,0001.87
2024-04-05 02:26:00,SystemResetWarning,0822.0,5.01,000.00,025.5,025.0,000.0,033.7,027.4,010.4,0000.0,0002.91,0011.37,0001.88
2024-04-05 02:27:00,SystemResetWarning,0822.0,5.00,000.00,025.5,025.1,000.0,033.8,027.4,010.8,0000.0,0002.88,0011.16,0001.89
2024-04-05 02:28:00,SystemResetWarning,0822.0,5.00,000.00,025.6,025.1,000.0,033.8,027.5,010.9,0000.0,0002.90,0011.29,0001.91
2024-04-05 02:29:00,SystemResetWarning,0822.0,5.00,000.00,025.6,025.1,000.0,033.8,027.5,011.0,0000.0,0002.89,0011.57,0001.92
2024-04-05 02:30:00,SystemResetWarning,0821.9,4.99,000.00,025.6,025.1,000.0,033.9,027.5,010.9,0000.0,0002.85,0011.29,0001.94
2024-04-05 02:31:00,SystemResetWarning,0821.9,4.99,000.00,025.7,025.1,000.0,033.9,027.6,011.1,0000.0,0002.83,0010.77,0001.94
2024-04-05 02:32:00,SystemResetWarning,0822.0,5.02,000.00,025.7,025.1,000.0,033.9,027.6,011.1,0000.0,0002.79,0010.94,0001.93
2024-04-05 02:33:00,SystemResetWarning,0822.0,5.02,000.00,025.7,025.2,000.0,034.0,027.6,011.0,0000.0,0002.85,0011.14,0001.93
2024-04-05 02:34:00,SystemResetWarning,0821.9,4.99,000.00,025.7,025.1,000.0,034.0,027.6,011.1,0000.0,0002.87,0011.23,0001.95
2024-04-05 02:35:00,SystemResetWarning,0821.9,4.99,000.00,025.5,023.3,000.0,034.0,026.5,011.4,0000.0,0002.89,0010.81,0001.96
2024-04-05 02:36:00,SystemResetWarning,0821.8,5.02,000.00,025.1,021.8,000.0,034.0,025.6,011.7,0000.0,0002.91,0010.27,0001.97
2024-04-05 02:37:00,SystemResetWarning,0821.8,5.00,000.00,024.8,021.9,000.0,033.9,025.6,011.9,0000.0,0002.92,0009.53,0001.99
2024-04-05 02:38:00,SystemResetWarning,0821.8,5.01,000.00,024.7,022.3,000.0,033.8,025.9,011.9,0000.0,0002.95,0009.97,0002.00
2024-04-05 02:39:00,SystemResetWarning,0821.8,5.00,000.00,024.7,022.6,000.0,033.7,026.2,012.0,0000.0,0003.00,0009.63,0002.00
2024-04-05 02:40:00,SystemResetWarning,0821.9,5.00,000.00,024.7,023.0,000.0,033.6,026.3,011.9,0000.0,0003.05,0009.85,0002.00
2024-04-05 02:41:00,SystemResetWarning,0821.9,5.00,000.00,024.7,023.3,000.0,033.5,026.4,011.9,0000.0,0003.02,0009.84,0001.99
2024-04-05 02:42:00,SystemResetWarning,0821.9,4.99,000.00,024.8,023.5,000.0,033.5,026.5,011.7,0000.0,0002.98,0009.83,0002.00
2024-04-05 02:43:00,SystemResetWarning,0821.9,4.99,000.00,024.8,023.7,000.0,033.5,026.6,011.5,0000.0,0003.02,0010.48,0002.03
2024-04-05 02:44:00,SystemResetWarning,0821.8,5.00,000.00,024.8,023.9,000.0,033.5,026.7,011.6,0000.0,0003.01,0010.09,0002.03
2024-04-05 02:45:00,SystemResetWarning,0821.8,5.00,000.00,024.9,024.0,000.0,033.4,026.7,011.6,0000.0,0002.98,0009.70,0002.02
2024-04-05 02:46:00,SystemResetWarning,0821.8,5.00,000.00,024.9,024.1,000.0,033.5,026.8,011.5,0000.0,0003.01,0009.39,0002.02
2024-04-05 02:47:00,SystemResetWarning,0821.9,5.00,000.00,024.9,024.2,000.0,033.4,026.8,011.5,0000.0,0003.02,0009.59,0002.02
2024-04-05 02:48:00,SystemResetWarning,0821.9,5.00,000.00,025.0,024.3,000.0,033.4,026.9,011.4,0000.0,0003.07,0010.08,0002.00
2024-04-05 02:49:00,SystemResetWarning,0821.9,5.00,000.00,025.0,024.4,000.0,033.5,026.9,011.2,0000.0,0003.07,0009.98,0001.99
2024-04-05 02:50:00,SystemResetWarning,0821.9,4.99,000.00,025.1,024.4,000.0,033.5,027.0,011.0,0000.0,0003.05,0010.02,0001.99
2024-04-05 02:51:00,SystemResetWarning,0821.9,4.99,000.00,025.1,024.5,000.0,033.5,027.0,010.9,0000.0,0002.98,0009.40,0001.98
2024-04-05 02:52:00,SystemResetWarning,0821.9,5.01,000.00,025.1,024.5,000.0,033.5,027.1,010.9,0000.0,0002.97,0009.51,0001.98
2024-04-05 02:53:00,SystemResetWarning,0821.9,5.01,000.00,025.2,024.6,000.0,033.5,027.1,011.2,0000.0,0003.01,0009.85,0001.98
2024-04-05 02:54:00,SystemResetWarning,0822.0,5.00,000.00,025.2,024.6,000.0,033.5,027.1,011.2,0000.0,0002.99,0009.51,0001.97
2024-04-05 02:55:00,SystemResetWarning,0822.0,4.99,000.00,025.2,024.6,000.0,033.6,027.1,011.1,0000.0,0002.96,0009.58,0001.98
2024-04-05 02:56:00,SystemResetWarning,0822.0,5.00,000.00,025.3,024.7,000.0,033.6,027.2,010.8,0000.0,0002.96,0009.60,0001.98
2024-04-05 02:57:00,SystemResetWarning,0822.0,5.00,000.00,025.3,024.7,000.0,033.6,027.2,010.7,0000.0,0002.96,0009.25,0001.99
2024-04-05 02:58:00,SystemResetWarning,0822.0,5.00,000.00,025.3,024.7,000.0,033.6,027.2,010.7,0000.0,0002.92,0010.11,0001.97
2024-04-05 02:59:00,SystemResetWarning,0822.0,5.00,000.00,025.3,024.8,000.0,033.7,027.2,010.3,0000.0,0002.93,0010.15,0001.98
